User: anonymous   Login
Location: Unspecified
(0.0000°N, 0.0000°E)
Time: 08:27:51
(UTC+00:00)
Language:

SBIRS GEO 1 (USA 230) - Orbit

View from above orbital plane
View from above orbital plane
View from above satellite
View from above satellite

Ground track
Ground track

The orbit data is extracted from the following two-line orbital elements,

1 37481U 11019A   18016.37677983 0.00000000  00000-0  00000-0 0    04
2 37481   3.2854 324.2689 0003003 264.2557  95.7052  1.00270000    06
Epoch (UTC): 16 January 2018 09:02:33
Eccentricity: 0.0003003
inclination: 3.2854°
perigee height: 35774 km
apogee height: 35799 km
right ascension of ascending node: 324.2689°
argument of perigee: 264.2557°
revolutions per day: 1.00270000
mean anomaly at epoch: 95.7052°
orbit number at epoch: 0

The dashed part of the orbit path shows where the satellite is in the earth's shadow,  

DLR